When you browse on this site, cookies collect data to enhance your experience and personalize the content and advertising you see.
Visit our Privacy Policy to learn more. By continuing to use the site, you agree to this use of cookies and data.
  • In Österreich
  • Länderverzeichnis
  • Für 7 Tage
  • Wassertemperatur
  • Satellitenkarten
  • Wetterkarte
  • News
  • Widgets
  • user-avatar
    Anmelden

    Stündliche Wetter Roluos

    Heute, 20 Juli, Samstag

    Zeit Temperatur Niederschläge Wind Luftdruck Luftfeuchtigkeit
    00:00 +29°C° 0.8 mm 1 m/S 753 mmHg 87%
    01:00 +28°C° 0 mm 1 m/S 753 mmHg 89%
    02:00 +28°C° 0.2 mm 1 m/S 753 mmHg 89%
    03:00 +28°C° 0.2 mm 1 m/S 752 mmHg 89%
    04:00 +28°C° 0.2 mm 1 m/S 752 mmHg 89%
    05:00 +28°C° 1.1 mm 1 m/S 752 mmHg 90%
    06:00 +28°C° 1.1 mm 1 m/S 753 mmHg 90%
    07:00 +28°C° 1.1 mm 2 m/S 753 mmHg 91%
    08:00 +29°C° 1.9 mm 2 m/S 753 mmHg 86%
    09:00 +30°C° 1.9 mm 1 m/S 754 mmHg 81%
    10:00 +32°C° 1.9 mm 1 m/S 754 mmHg 76%
    11:00 +32°C° 0.9 mm 1 m/S 753 mmHg 73%
    12:00 +33°C° 0.9 mm 1 m/S 753 mmHg 70%
    13:00 +34°C° 0.9 mm 1 m/S 752 mmHg 67%
    14:00 +34°C° 0.3 mm 1 m/S 752 mmHg 66%
    15:00 +34°C° 0.3 mm 1 m/S 751 mmHg 65%
    16:00 +34°C° 0.3 mm 1 m/S 751 mmHg 65%
    17:00 +32°C° 1.6 mm 1 m/S 751 mmHg 72%
    18:00 +31°C° 1.6 mm 1 m/S 751 mmHg 78%
    19:00 +30°C° 1.6 mm 2 m/S 752 mmHg 85%
    20:00 +29°C° 0.6 mm 1 m/S 752 mmHg 86%
    21:00 +29°C° 0.6 mm 1 m/S 753 mmHg 86%
    22:00 +29°C° 0.6 mm 1 m/S 754 mmHg 87%
    23:00 +29°C° 0 mm 1 m/S 753 mmHg 87%

    Morgen, 21 Juli, Sonntag

    Zeit Temperatur Niederschläge Wind Luftdruck Luftfeuchtigkeit
    00:00 +29°C° 0 mm 1 m/S 753 mmHg 87%
    01:00 +29°C° 0 mm 1 m/S 753 mmHg 87%
    02:00 +28°C° 0.1 mm 1 m/S 753 mmHg 87%
    03:00 +28°C° 0.1 mm 1 m/S 753 mmHg 88%
    04:00 +28°C° 0.1 mm 1 m/S 753 mmHg 88%
    05:00 +28°C° 0.6 mm 1 m/S 753 mmHg 89%
    06:00 +28°C° 0.6 mm 2 m/S 753 mmHg 90%
    07:00 +28°C° 0.6 mm 2 m/S 754 mmHg 91%
    08:00 +29°C° 0.4 mm 1 m/S 754 mmHg 86%
    09:00 +30°C° 0.4 mm 1 m/S 754 mmHg 82%
    10:00 +31°C° 0.4 mm 1 m/S 755 mmHg 78%
    11:00 +32°C° 1.2 mm 1 m/S 754 mmHg 73%
    12:00 +34°C° 1.2 mm 2 m/S 754 mmHg 68%
    13:00 +35°C° 1.2 mm 2 m/S 753 mmHg 64%
    14:00 +34°C° 1 mm 2 m/S 752 mmHg 68%
    15:00 +34°C° 1 mm 2 m/S 752 mmHg 72%
    16:00 +32°C° 1 mm 2 m/S 751 mmHg 76%
    17:00 +31°C° 2.1 mm 2 m/S 751 mmHg 78%
    18:00 +30°C° 2.1 mm 2 m/S 752 mmHg 81%
    19:00 +29°C° 2.1 mm 1 m/S 752 mmHg 83%
    20:00 +29°C° 0.1 mm 1 m/S 753 mmHg 84%
    21:00 +29°C° 0.1 mm 1 m/S 754 mmHg 85%
    22:00 +27°C° 0.1 mm 0 m/S 754 mmHg 86%
    23:00 +26°C° 0.3 mm 0 m/S 754 mmHg 87%

    übermorgen, 22 Juli, Montag

    Zeit Temperatur Niederschläge Wind Luftdruck Luftfeuchtigkeit
    00:00 +26°C° 0.3 mm 0 m/S 754 mmHg 87%
    01:00 +26°C° 0.3 mm 0 m/S 754 mmHg 88%
    02:00 +26°C° 0 mm 0 m/S 754 mmHg 88%
    03:00 +26°C° 0 mm 0 m/S 753 mmHg 88%
    04:00 +26°C° 0 mm 0 m/S 753 mmHg 88%
    05:00 +26°C° 0 mm 0 m/S 754 mmHg 88%
    06:00 +26°C° 0 mm 0 m/S 754 mmHg 88%
    07:00 +26°C° 0 mm 0 m/S 754 mmHg 88%
    08:00 +27°C° 0.1 mm 0 m/S 754 mmHg 84%
    09:00 +28°C° 0.1 mm 0 m/S 755 mmHg 80%
    10:00 +29°C° 0.1 mm 0 m/S 755 mmHg 77%
    11:00 +32°C° 0 mm 1 m/S 754 mmHg 70%
    12:00 +34°C° 0 mm 2 m/S 754 mmHg 64%
    13:00 +36°C° 0 mm 3 m/S 753 mmHg 58%
    14:00 +35°C° 0.6 mm 3 m/S 753 mmHg 59%
    15:00 +35°C° 0.6 mm 3 m/S 752 mmHg 60%
    16:00 +35°C° 0.6 mm 3 m/S 752 mmHg 62%
    17:00 +34°C° 0.6 mm 2 m/S 752 mmHg 67%
    18:00 +31°C° 0.6 mm 2 m/S 752 mmHg 72%
    19:00 +30°C° 0.6 mm 1 m/S 753 mmHg 77%
    20:00 +29°C° 0.1 mm 1 m/S 753 mmHg 78%
    21:00 +29°C° 0.1 mm 1 m/S 754 mmHg 79%
    22:00 +29°C° 0.1 mm 1 m/S 754 mmHg 79%
    23:00 +29°C° 0 mm 1 m/S 754 mmHg 80%

    23 Juli, Dienstag

    Zeit Temperatur Niederschläge Wind Luftdruck Luftfeuchtigkeit
    00:00 +28°C° 0 mm 1 m/S 754 mmHg 81%
    01:00 +26°C° 0 mm 0 m/S 754 mmHg 82%
    02:00 +28°C° 0.5 mm 1 m/S 753 mmHg 83%
    03:00 +28°C° 0.5 mm 1 m/S 753 mmHg 84%
    04:00 +28°C° 0.5 mm 1 m/S 753 mmHg 85%
    05:00 +27°C° 0.1 mm 1 m/S 753 mmHg 85%
    06:00 +27°C° 0.1 mm 1 m/S 754 mmHg 85%
    07:00 +27°C° 0.1 mm 1 m/S 754 mmHg 86%
    08:00 +28°C° 0 mm 1 m/S 754 mmHg 84%
    09:00 +29°C° 0 mm 1 m/S 754 mmHg 81%
    10:00 +30°C° 0 mm 2 m/S 755 mmHg 79%
    11:00 +31°C° 0 mm 2 m/S 754 mmHg 72%
    12:00 +34°C° 0 mm 3 m/S 754 mmHg 66%
    13:00 +35°C° 0 mm 3 m/S 753 mmHg 59%
    14:00 +35°C° 0 mm 3 m/S 753 mmHg 60%
    15:00 +35°C° 0 mm 4 m/S 752 mmHg 60%
    16:00 +35°C° 0 mm 4 m/S 752 mmHg 60%
    17:00 +33°C° 0 mm 3 m/S 752 mmHg 66%
    18:00 +31°C° 0 mm 2 m/S 752 mmHg 71%
    19:00 +30°C° 0 mm 1 m/S 753 mmHg 77%
    20:00 +29°C° 0 mm 1 m/S 753 mmHg 77%
    21:00 +29°C° 0 mm 1 m/S 754 mmHg 77%
    22:00 +29°C° 0 mm 1 m/S 754 mmHg 78%
    23:00 +29°C° 0.2 mm 1 m/S 754 mmHg 79%

    24 Juli, Mittwoch

    Zeit Temperatur Niederschläge Wind Luftdruck Luftfeuchtigkeit
    00:00 +28°C° 0.2 mm 1 m/S 754 mmHg 81%
    01:00 +28°C° 0.2 mm 1 m/S 754 mmHg 82%
    02:00 +28°C° 0 mm 1 m/S 753 mmHg 83%
    03:00 +28°C° 0 mm 1 m/S 753 mmHg 83%
    04:00 +25°C° 0 mm 0 m/S 753 mmHg 84%
    05:00 +28°C° 0.1 mm 1 m/S 753 mmHg 83%
    06:00 +28°C° 0.1 mm 1 m/S 754 mmHg 82%
    07:00 +29°C° 0.1 mm 1 m/S 754 mmHg 82%
    08:00 +30°C° 0.4 mm 1 m/S 754 mmHg 76%
    09:00 +32°C° 0.4 mm 1 m/S 755 mmHg 71%
    10:00 +34°C° 0.4 mm 2 m/S 755 mmHg 65%
    11:00 +35°C° 0 mm 2 m/S 754 mmHg 62%
    12:00 +36°C° 0 mm 2 m/S 754 mmHg 58%
    13:00 +37°C° 0 mm 3 m/S 753 mmHg 54%
    14:00 +36°C° 0.1 mm 3 m/S 753 mmHg 55%
    15:00 +36°C° 0.1 mm 2 m/S 752 mmHg 56%
    16:00 +36°C° 0.1 mm 2 m/S 752 mmHg 58%
    17:00 +34°C° 0.2 mm 2 m/S 752 mmHg 63%
    18:00 +32°C° 0.2 mm 1 m/S 753 mmHg 68%
    19:00 +30°C° 0.2 mm 1 m/S 753 mmHg 74%
    20:00 +30°C° 0.3 mm 1 m/S 754 mmHg 76%
    21:00 +27°C° 0.3 mm 0 m/S 754 mmHg 78%
    22:00 +27°C° 0.3 mm 0 m/S 755 mmHg 81%
    23:00 +27°C° 0.2 mm 0 m/S 755 mmHg 81%

    25 Juli, Donnerstag

    Zeit Temperatur Niederschläge Wind Luftdruck Luftfeuchtigkeit
    00:00 +26°C° 0.2 mm 0 m/S 755 mmHg 82%
    01:00 +28°C° 0.2 mm 1 m/S 754 mmHg 83%
    02:00 +26°C° 0 mm 0 m/S 754 mmHg 83%
    03:00 +26°C° 0 mm 0 m/S 754 mmHg 84%
    04:00 +26°C° 0 mm 0 m/S 754 mmHg 84%
    05:00 +26°C° 0 mm 0 m/S 754 mmHg 84%
    06:00 +27°C° 0 mm 0 m/S 755 mmHg 83%
    07:00 +27°C° 0 mm 0 m/S 755 mmHg 82%
    08:00 +29°C° 0 mm 0 m/S 755 mmHg 76%
    09:00 +30°C° 0 mm 0 m/S 755 mmHg 71%
    10:00 +32°C° 0 mm 0 m/S 756 mmHg 65%
    11:00 +34°C° 0.1 mm 1 m/S 755 mmHg 62%
    12:00 +36°C° 0.1 mm 2 m/S 755 mmHg 59%
    13:00 +36°C° 0.1 mm 3 m/S 754 mmHg 56%
    14:00 +36°C° 0.1 mm 2 m/S 753 mmHg 56%
    15:00 +36°C° 0.1 mm 2 m/S 753 mmHg 55%
    16:00 +36°C° 0.1 mm 2 m/S 752 mmHg 55%
    17:00 +34°C° 0.1 mm 1 m/S 753 mmHg 60%
    18:00 +32°C° 0.1 mm 1 m/S 753 mmHg 65%
    19:00 +29°C° 0.1 mm 0 m/S 753 mmHg 70%
    20:00 +30°C° 0.1 mm 1 m/S 754 mmHg 72%
    21:00 +30°C° 0.1 mm 1 m/S 755 mmHg 74%
    22:00 +29°C° 0.1 mm 1 m/S 755 mmHg 76%
    23:00 +29°C° 0.2 mm 1 m/S 755 mmHg 77%
    Mehr zeigen